Terug naar catalogus

FALCON HEAVY R/B

ActiefLEO
NORAD 58050·ROCKET BODY·🇺🇸 United States

Gelanceerd Oct 13, 2023 vanaf Cape Canaveral Space Force Station

Loading…

Volgende Passages (komende 24 uur)

TLE

VerouderdSource: Space-Track

Epoch: Oct 13, 2023, 14:28 UTC

1 58050U 23157B   23286.60289039  .00001209 -37902-5  00000-0 0  9993
2 58050  30.0000  47.5426 0467200 123.5100 359.9800 15.29658471    04

Volg FALCON HEAVY R/B in realtime met AllMySat

Download on the App Store